This is the latest recevied weather packets stored in our database for station/object CT1ETE-13. If no packets are shown the sender has not sent any weather packets the latest 10 day(s).
| Time | Temp. | Humidity | Pressure | Rain* | Wind** | Luminosity | Snow |
|---|---|---|---|---|---|---|---|
| 1777194065 | 21.67° C | 64% | 1018 hPa | 0 mm | - | - | - |
| 1777193164 | 21.67° C | 64% | 1018 hPa | 0 mm | - | - | - |
| 1777192263 | 21.67° C | 63% | 1017.9 hPa | 0 mm | - | - | - |
| 1777191421 | 21.11° C | 65% | 1017.7 hPa | 0 mm | - | - | - |
| 1777190460 | 20.56° C | 64% | 1017.8 hPa | 0 mm | - | - | - |
| 1777189558 | 20.56° C | 63% | 1017.7 hPa | 0 mm | - | - | - |
| 1777188655 | 20° C | 64% | 1017.6 hPa | 0 mm | - | - | - |
| 1777187756 | 20° C | 64% | 1017.4 hPa | 0 mm | - | - | - |
| 1777186849 | 19.44° C | 65% | 1017.3 hPa | 0 mm | - | - | - |
| 1777186009 | 18.89° C | 66% | 1017.1 hPa | 0 mm | - | - | - |
| 1777185049 | 18.89° C | 67% | 1016.9 hPa | 0 mm | - | - | - |
| 1777184147 | 18.33° C | 68% | 1016.8 hPa | 0 mm | - | - | - |
| 1777183248 | 17.78° C | 68% | 1016.6 hPa | 0 mm | - | - | - |
| 1777182347 | 17.78° C | 68% | 1016.5 hPa | 0 mm | - | - | - |
| 1777181503 | 17.78° C | 69% | 1016.4 hPa | 0 mm | - | - | - |
| 1777180542 | 17.78° C | 69% | 1016.5 hPa | 0 mm | - | - | - |
| 1777179643 | 17.78° C | 69% | 1016.5 hPa | 0 mm | - | - | - |
| 1777178741 | 17.78° C | 68% | 1016.4 hPa | 0 mm | - | - | - |
| 1777177841 | 18.33° C | 66% | 1016.3 hPa | 0 mm | - | - | - |
| 1777176942 | 17.78° C | 67% | 1016.3 hPa | 0 mm | - | - | - |
| 1777176041 | 17.78° C | 66% | 1016.4 hPa | 0 mm | - | - | - |
| 1777175141 | 18.33° C | 65% | 1016.4 hPa | 0 mm | - | - | - |
| 1777174301 | 18.33° C | 65% | 1016.4 hPa | 0 mm | - | - | - |
| 1777173400 | 17.78° C | 65% | 1016.4 hPa | 0 mm | - | - | - |
| 1777172499 | 18.33° C | 64% | 1016.4 hPa | 0 mm | - | - | - |
* Rain latest hour (hover to see other rain measurements)
** Current wind speed in m/s (hover to see current wind gust speed)